Time,TemperatureF,DewpointF,PressureIn,WindDirection,WindDirectionDegrees,WindSpeedMPH,WindSpeedGustMPH,Humidity,HourlyPrecipIn,Conditions,Clouds,dailyrainin,SolarRadiationWatts/m^2,SoftwareType,DateUTC
2013-03-17 00:00:00,28.0,20.0,-100.00,NW,315,5.0,-999.0,71,-99.99,,,-99.99,0.000000,,2013-03-17 04:00:00,
2013-03-17 00:43:00,28.0,20.0,-100.00,NW,315,5.0,-999.0,71,-99.99,,,-99.99,0.000000,,2013-03-17 04:43:00,
2013-03-17 00:53:00,28.0,20.0,-100.00,NW,315,5.0,-999.0,71,-99.99,,,-99.99,0.000000,,2013-03-17 04:53:00,
2013-03-17 01:00:00,29.0,21.0,-100.00,NW,315,5.0,-999.0,71,-99.99,,,-99.99,0.000000,,2013-03-17 05:00:00,
2013-03-17 01:42:00,29.0,21.0,-100.00,NW,315,5.0,-999.0,71,-99.99,,,-99.99,0.000000,,2013-03-17 05:42:00,
2013-03-17 01:52:00,29.0,21.0,-100.00,NW,315,5.0,-999.0,71,-99.99,,,-99.99,0.000000,,2013-03-17 05:52:00,
2013-03-17 02:00:00,29.0,21.0,-100.00,NW,315,6.0,-999.0,69,-99.99,,,-99.99,0.000000,,2013-03-17 06:00:00,
2013-03-17 02:42:00,29.0,21.0,-100.00,NW,315,6.0,-999.0,69,-99.99,,,-99.99,0.000000,,2013-03-17 06:42:00,
2013-03-17 02:52:00,29.0,21.0,-100.00,NW,315,6.0,-999.0,69,-99.99,,,-99.99,0.000000,,2013-03-17 06:52:00,
2013-03-17 03:00:00,30.0,21.0,-100.00,NW,315,5.0,-999.0,70,-99.99,,,-99.99,0.000000,,2013-03-17 07:00:00,
2013-03-17 03:42:00,30.0,21.0,-100.00,NW,315,5.0,-999.0,70,-99.99,,,-99.99,0.000000,,2013-03-17 07:42:00,
2013-03-17 03:52:00,30.0,21.0,-100.00,NW,315,5.0,-999.0,70,-99.99,,,-99.99,0.000000,,2013-03-17 07:52:00,
2013-03-17 04:00:00,30.0,21.0,-100.00,NW,315,7.0,-999.0,70,-99.99,,,-99.99,0.000000,,2013-03-17 08:00:00,
2013-03-17 04:42:00,30.0,21.0,-100.00,NW,315,7.0,-999.0,70,-99.99,,,-99.99,0.000000,,2013-03-17 08:42:00,
2013-03-17 04:52:00,30.0,21.0,-100.00,NW,315,7.0,-999.0,70,-99.99,,,-99.99,0.000000,,2013-03-17 08:52:00,
2013-03-17 05:00:00,29.0,20.0,-100.00,West,270,7.0,-999.0,68,-99.99,,,-99.99,0.000000,,2013-03-17 09:00:00,
2013-03-17 05:43:00,29.0,20.0,-100.00,West,270,7.0,-999.0,68,-99.99,,,-99.99,0.000000,,2013-03-17 09:43:00,
2013-03-17 05:53:00,29.0,20.0,-100.00,West,270,7.0,-999.0,68,-99.99,,,-99.99,0.000000,,2013-03-17 09:53:00,
2013-03-17 06:00:00,28.0,18.0,-100.00,SSW,202,7.0,-999.0,63,-99.99,,,-99.99,0.000000,,2013-03-17 10:00:00,
2013-03-17 06:42:00,28.0,18.0,-100.00,SSW,202,7.0,-999.0,63,-99.99,,,-99.99,0.000000,,2013-03-17 10:42:00,
2013-03-17 06:52:00,28.0,18.0,-100.00,SSW,202,7.0,-999.0,63,-99.99,,,-99.99,0.000000,,2013-03-17 10:52:00,
2013-03-17 07:00:00,28.0,17.0,-100.00,ENE,67,4.0,-999.0,63,-99.99,,,-99.99,0.000000,,2013-03-17 11:00:00,
2013-03-17 07:43:00,28.0,17.0,-100.00,ENE,67,4.0,-999.0,63,-99.99,,,-99.99,0.000000,,2013-03-17 11:43:00,
2013-03-17 07:52:00,28.0,17.0,-100.00,ENE,67,4.0,-999.0,63,-99.99,,,-99.99,0.000000,,2013-03-17 11:52:00,
2013-03-17 08:00:00,28.0,17.0,-100.00,NE,45,4.0,-999.0,63,-99.99,,,-99.99,1.160000,,2013-03-17 12:00:00,
2013-03-17 08:43:00,28.0,17.0,-100.00,NE,45,4.0,-999.0,63,-99.99,,,-99.99,1.160000,,2013-03-17 12:43:00,
2013-03-17 08:52:00,28.0,17.0,-100.00,NE,45,4.0,-999.0,63,-99.99,,,-99.99,1.160000,,2013-03-17 12:52:00,
2013-03-17 09:00:00,27.0,17.0,-100.00,ENE,67,4.0,-999.0,63,-99.99,,,-99.99,38.279999,,2013-03-17 13:00:00,
2013-03-17 09:43:00,27.0,17.0,-100.00,ENE,67,4.0,-999.0,63,-99.99,,,-99.99,38.279999,,2013-03-17 13:43:00,
2013-03-17 09:52:00,27.0,17.0,-100.00,ENE,67,4.0,-999.0,63,-99.99,,,-99.99,38.279999,,2013-03-17 13:52:00,
2013-03-17 10:00:00,28.0,17.0,-100.00,ENE,67,5.0,-999.0,63,-99.99,,,-99.99,148.479996,,2013-03-17 14:00:00,
2013-03-17 10:43:00,28.0,17.0,-100.00,ENE,67,5.0,-999.0,63,-99.99,,,-99.99,148.479996,,2013-03-17 14:43:00,
2013-03-17 10:53:00,28.0,17.0,-100.00,ENE,67,5.0,-999.0,63,-99.99,,,-99.99,148.479996,,2013-03-17 14:53:00,
2013-03-17 11:00:00,28.0,18.0,-100.00,ENE,67,7.0,-999.0,66,-99.99,,,-99.99,213.440002,,2013-03-17 15:00:00,
2013-03-17 11:43:00,28.0,18.0,-100.00,ENE,67,7.0,-999.0,66,-99.99,,,-99.99,213.440002,,2013-03-17 15:43:00,
2013-03-17 11:53:00,28.0,18.0,-100.00,ENE,67,7.0,-999.0,66,-99.99,,,-99.99,213.440002,,2013-03-17 15:53:00,
2013-03-17 12:00:00,29.0,18.0,-100.00,East,90,7.0,-999.0,63,-99.99,,,-99.99,330.600006,,2013-03-17 16:00:00,
2013-03-17 12:43:00,29.0,18.0,-100.00,East,90,7.0,-999.0,63,-99.99,,,-99.99,330.600006,,2013-03-17 16:43:00,
2013-03-17 12:52:00,29.0,18.0,-100.00,East,90,7.0,-999.0,63,-99.99,,,-99.99,330.600006,,2013-03-17 16:52:00,
2013-03-17 13:00:00,30.0,17.0,-100.00,ESE,112,6.0,-999.0,57,-99.99,,,-99.99,541.719971,,2013-03-17 17:00:00,
2013-03-17 13:42:00,30.0,17.0,-100.00,ESE,112,6.0,-999.0,57,-99.99,,,-99.99,541.719971,,2013-03-17 17:42:00,
2013-03-17 13:53:00,30.0,17.0,-100.00,ESE,112,6.0,-999.0,57,-99.99,,,-99.99,541.719971,,2013-03-17 17:53:00,
2013-03-17 14:00:00,33.0,18.0,-100.00,ESE,112,7.0,-999.0,54,-99.99,,,-99.99,706.440002,,2013-03-17 18:00:00,
2013-03-17 14:42:00,33.0,18.0,-100.00,ESE,112,7.0,-999.0,54,-99.99,,,-99.99,706.440002,,2013-03-17 18:42:00,
2013-03-17 14:52:00,33.0,18.0,-100.00,ESE,112,7.0,-999.0,54,-99.99,,,-99.99,706.440002,,2013-03-17 18:52:00,
2013-03-17 15:00:00,34.0,18.0,-100.00,ESE,112,6.0,-999.0,51,-99.99,,,-99.99,595.080017,,2013-03-17 19:00:00,
2013-03-17 15:42:00,34.0,18.0,-100.00,ESE,112,6.0,-999.0,51,-99.99,,,-99.99,595.080017,,2013-03-17 19:42:00,
2013-03-17 15:53:00,34.0,18.0,-100.00,ESE,112,6.0,-999.0,51,-99.99,,,-99.99,595.080017,,2013-03-17 19:53:00,
2013-03-17 16:00:00,35.0,19.0,-100.00,ESE,112,8.0,-999.0,51,-99.99,,,-99.99,577.679993,,2013-03-17 20:00:00,
2013-03-17 16:43:00,35.0,19.0,-100.00,ESE,112,8.0,-999.0,51,-99.99,,,-99.99,577.679993,,2013-03-17 20:43:00,
2013-03-17 16:52:00,35.0,19.0,-100.00,ESE,112,8.0,-999.0,51,-99.99,,,-99.99,577.679993,,2013-03-17 20:52:00,
2013-03-17 17:00:00,35.0,19.0,-100.00,ESE,112,8.0,-999.0,51,-99.99,,,-99.99,516.200012,,2013-03-17 21:00:00,
2013-03-17 17:43:00,35.0,19.0,-100.00,ESE,112,8.0,-999.0,51,-99.99,,,-99.99,516.200012,,2013-03-17 21:43:00,
2013-03-17 17:52:00,35.0,19.0,-100.00,ESE,112,8.0,-999.0,51,-99.99,,,-99.99,516.200012,,2013-03-17 21:52:00,
2013-03-17 18:00:00,35.0,19.0,-100.00,ESE,112,7.0,-999.0,51,-99.99,,,-99.99,343.359985,,2013-03-17 22:00:00,
2013-03-17 18:42:00,35.0,19.0,-100.00,ESE,112,7.0,-999.0,51,-99.99,,,-99.99,343.359985,,2013-03-17 22:42:00,
2013-03-17 18:53:00,35.0,19.0,-100.00,ESE,112,7.0,-999.0,51,-99.99,,,-99.99,343.359985,,2013-03-17 22:53:00,
2013-03-17 19:00:00,34.0,19.0,-100.00,ESE,112,7.0,-999.0,54,-99.99,,,-99.99,162.399994,,2013-03-17 23:00:00,
2013-03-17 19:43:00,34.0,19.0,-100.00,ESE,112,7.0,-999.0,54,-99.99,,,-99.99,162.399994,,2013-03-17 23:43:00,
2013-03-17 19:53:00,34.0,19.0,-100.00,ESE,112,7.0,-999.0,54,-99.99,,,-99.99,162.399994,,2013-03-17 23:53:00,
2013-03-17 21:00:00,30.0,18.0,-100.00,East,90,5.0,-999.0,59,-99.99,,,-99.99,0.000000,,2013-03-18 01:00:00,
2013-03-17 21:42:00,30.0,18.0,-100.00,East,90,5.0,-999.0,59,-99.99,,,-99.99,0.000000,,2013-03-18 01:42:00,
2013-03-17 21:52:00,30.0,18.0,-100.00,East,90,5.0,-999.0,59,-99.99,,,-99.99,0.000000,,2013-03-18 01:52:00,
2013-03-17 22:00:00,30.0,18.0,-100.00,East,90,6.0,-999.0,59,-99.99,,,-99.99,0.000000,,2013-03-18 02:00:00,
2013-03-17 22:42:00,30.0,18.0,-100.00,East,90,6.0,-999.0,59,-99.99,,,-99.99,0.000000,,2013-03-18 02:42:00,
2013-03-17 22:52:00,30.0,18.0,-100.00,East,90,6.0,-999.0,59,-99.99,,,-99.99,0.000000,,2013-03-18 02:52:00,
2013-03-17 23:00:00,29.0,18.0,-100.00,ESE,112,9.0,-999.0,64,-99.99,,,-99.99,0.000000,,2013-03-18 03:00:00,
2013-03-17 23:42:00,29.0,18.0,-100.00,ESE,112,9.0,-999.0,64,-99.99,,,-99.99,0.000000,,2013-03-18 03:42:00,
2013-03-17 23:53:00,29.0,18.0,-100.00,ESE,112,9.0,-999.0,64,-99.99,,,-99.99,0.000000,,2013-03-18 03:53:00,